EST,Max TemperatureF,Mean TemperatureF,Min TemperatureF,Max Dew PointF,MeanDew PointF,Min DewpointF,Max Humidity, Mean Humidity, Min Humidity, Max Sea Level PressureIn, Mean Sea Level PressureIn, Min Sea Level PressureIn, Max VisibilityMiles, Mean VisibilityMiles, Min VisibilityMiles, Max Wind SpeedMPH, Mean Wind SpeedMPH, Max Gust SpeedMPH,PrecipitationIn, CloudCover, Events, WindDirDegrees
2012-12-1,64,48,32,46,39,30,100,84,48,30.42,30.38,30.33,10,6,0,8,1,,0.00,0,Fog,244
2012-12-2,66,50,33,49,39,33,100,87,50,30.41,30.36,30.27,10,4,0,9,1,,0.00,2,Fog,186
2012-12-3,75,63,51,56,52,49,96,76,44,30.29,30.26,30.22,10,10,6,8,5,,0.00,3,,213
2012-12-4,71,58,44,55,49,44,100,86,51,30.33,30.27,30.19,10,6,0,12,2,20,0.00,2,Fog,195
2012-12-5,66,54,41,57,50,39,96,86,68,30.22,30.17,30.13,10,8,0,14,6,,0.01,5,Fog,302
2012-12-6,51,43,35,43,35,30,100,76,48,30.35,30.26,30.22,10,8,0,10,5,16,0.00,4,Fog,32
2012-12-7,62,53,44,52,44,35,84,74,64,30.23,30.11,29.99,10,10,10,8,2,,0.00,8,,27
2012-12-8,66,57,48,53,51,47,100,86,60,30.06,30.01,29.97,10,6,2,8,4,,0.00,5,,232
2012-12-9,73,60,48,60,55,48,100,85,59,30.15,30.08,30.00,10,7,2,9,4,,0.02,6,Rain,182
2012-12-10,73,66,60,64,60,55,100,81,55,29.98,29.82,29.70,10,9,5,18,7,31,0.00,5,Rain,192
2012-12-11,64,58,50,57,47,35,100,68,47,30.15,29.94,29.74,10,9,1,12,6,,0.00,6,,7
2012-12-12,50,44,39,40,35,30,86,69,54,30.32,30.27,30.17,10,10,8,17,10,22,0.17,8,Rain,20
2012-12-13,53,44,35,38,35,31,89,79,57,30.37,30.33,30.27,10,9,5,14,11,25,0.30,5,Rain,10
2012-12-14,55,42,28,36,30,25,93,76,31,30.38,30.31,30.26,10,8,1,5,1,,0.00,0,,351
2012-12-15,55,42,28,44,34,27,96,76,38,30.30,30.22,30.12,10,9,2,6,0,,0.00,2,,95
2012-12-16,57,52,48,56,50,45,96,92,87,30.10,30.03,29.92,10,5,2,9,2,,0.21,8,Rain-Thunderstorm,197
2012-12-17,64,60,55,57,55,53,100,89,73,29.91,29.81,29.61,10,7,1,16,5,25,0.49,7,Rain,197
2012-12-18,63,51,36,55,45,31,93,70,44,29.91,29.73,29.65,10,10,10,15,9,23,0.01,3,,251
2012-12-19,64,47,30,40,34,29,92,70,31,30.15,30.01,29.91,10,10,9,12,3,17,0.00,0,,244
2012-12-20,63,50,37,61,45,34,93,79,58,30.19,29.93,29.47,10,9,5,16,4,30,0.28,3,Rain,120
2012-12-21,64,52,37,63,33,19,100,58,36,29.79,29.60,29.43,10,10,5,22,15,38,0.03,4,Rain,251
2012-12-22,50,40,30,23,20,17,67,45,28,30.09,29.97,29.79,10,10,10,15,9,29,0.00,0,,270
2012-12-23,55,40,24,30,23,19,84,56,28,30.16,30.09,30.04,10,10,10,10,4,,0.00,1,,205
2012-12-24,55,50,44,43,36,29,71,58,47,30.06,29.99,29.92,10,10,10,10,5,,0.00,7,Rain,200
2012-12-25,60,50,39,45,42,37,100,78,51,30.16,30.05,29.93,10,8,0,9,2,,0.00,4,Fog,35
2012-12-26,64,54,44,58,48,38,100,90,76,30.09,29.66,29.40,10,6,0,18,9,24,2.09,8,Fog-Rain-Thunderstorm,59
2012-12-27,48,42,35,38,30,24,82,61,44,30.07,29.87,29.62,10,10,10,16,11,28,0.00,1,,278
2012-12-28,45,36,27,32,27,23,85,67,49,30.19,30.11,30.05,10,10,10,5,1,,0.00,3,,24
2012-12-29,52,46,39,43,37,28,97,78,52,30.04,29.77,29.64,10,8,2,15,5,29,0.63,6,Rain,288
2012-12-30,46,37,28,28,22,18,79,55,34,30.39,30.24,29.94,10,10,10,15,9,23,0.00,0,,290
2012-12-31,52,36,21,29,24,19,89,60,35,30.39,30.28,30.12,10,10,10,12,3,,0.00,1,,203